TimeCDT,TemperatureF,Dew PointF,Humidity,Sea Level PressureIn,VisibilityMPH,Wind Direction,Wind SpeedMPH,Gust SpeedMPH,PrecipitationIn,Events,Conditions,WindDirDegrees,DateUTC
12:53 AM,68.0,61.0,78,29.97,10.0,Calm,Calm,-,N/A,,Clear,0,2012-06-03 05:53:00
1:53 AM,66.9,60.1,79,29.96,10.0,SSW,3.5,-,N/A,,Clear,200,2012-06-03 06:53:00
2:53 AM,66.0,61.0,84,29.96,10.0,Calm,Calm,-,N/A,,Clear,0,2012-06-03 07:53:00
3:53 AM,64.9,62.1,90,29.97,10.0,Calm,Calm,-,N/A,,Clear,0,2012-06-03 08:53:00
4:53 AM,64.0,62.1,93,29.98,10.0,Calm,Calm,-,N/A,,Clear,0,2012-06-03 09:53:00
5:53 AM,63.0,61.0,93,29.98,10.0,Calm,Calm,-,N/A,,Clear,0,2012-06-03 10:53:00
6:29 AM,64.4,62.6,94,30.01,9.0,Calm,Calm,-,N/A,,Mostly Cloudy,0,2012-06-03 11:29:00
6:42 AM,62.6,62.6,100,30.01,8.0,Calm,Calm,-,N/A,,Mostly Cloudy,0,2012-06-03 11:42:00
6:53 AM,64.0,63.0,96,30.00,8.0,Calm,Calm,-,N/A,,Overcast,0,2012-06-03 11:53:00
7:31 AM,66.2,66.2,100,30.02,1.5,Calm,Calm,-,N/A,,Overcast,0,2012-06-03 12:31:00
7:38 AM,66.2,66.2,100,30.03,0.2,Calm,Calm,-,N/A,Fog,Fog,0,2012-06-03 12:38:00
7:53 AM,68.0,68.0,100,30.01,0.2,Calm,Calm,-,N/A,Fog,Fog,0,2012-06-03 12:53:00
8:39 AM,69.8,69.8,100,30.04,1.0,Calm,Calm,-,N/A,,Overcast,0,2012-06-03 13:39:00
8:48 AM,69.8,69.8,100,30.04,3.0,Calm,Calm,-,N/A,,Overcast,0,2012-06-03 13:48:00
8:53 AM,70.0,70.0,100,30.03,3.0,Calm,Calm,-,N/A,,Overcast,0,2012-06-03 13:53:00
9:08 AM,71.6,69.8,94,30.04,6.0,South,4.6,-,N/A,,Mostly Cloudy,190,2012-06-03 14:08:00
9:24 AM,75.2,71.6,89,30.05,8.0,SSW,8.1,-,N/A,,Mostly Cloudy,210,2012-06-03 14:24:00
9:49 AM,77.0,71.6,83,30.04,8.0,Variable,4.6,-,N/A,,Overcast,0,2012-06-03 14:49:00
9:53 AM,78.1,71.1,79,30.02,8.0,SW,5.8,-,N/A,,Overcast,230,2012-06-03 14:53:00
10:21 AM,80.6,69.8,70,30.04,10.0,Variable,4.6,-,N/A,,Partly Cloudy,0,2012-06-03 15:21:00
10:53 AM,82.9,69.1,63,30.01,10.0,SW,5.8,-,N/A,,Clear,220,2012-06-03 15:53:00
11:53 AM,86.0,69.1,57,30.00,10.0,Variable,4.6,-,N/A,,Clear,0,2012-06-03 16:53:00
12:53 PM,88.0,66.0,48,29.98,10.0,West,5.8,-,N/A,,Clear,280,2012-06-03 17:53:00
1:53 PM,91.0,64.0,41,29.96,10.0,SW,6.9,-,N/A,,Clear,230,2012-06-03 18:53:00
2:53 PM,91.9,64.9,41,29.94,10.0,Variable,6.9,-,N/A,,Clear,0,2012-06-03 19:53:00
3:53 PM,93.0,63.0,37,29.91,10.0,WSW,9.2,16.1,N/A,,Clear,240,2012-06-03 20:53:00
4:53 PM,93.0,64.0,38,29.91,10.0,West,8.1,-,N/A,,Clear,260,2012-06-03 21:53:00
5:53 PM,90.0,64.9,43,29.91,10.0,SW,6.9,-,N/A,,Clear,220,2012-06-03 22:53:00
6:53 PM,88.0,66.0,48,29.91,10.0,WSW,8.1,-,N/A,,Clear,240,2012-06-03 23:53:00
7:53 PM,84.0,68.0,58,29.92,10.0,SW,3.5,-,N/A,,Clear,230,2012-06-04 00:53:00
8:53 PM,80.1,68.0,67,29.91,10.0,SW,3.5,-,N/A,,Clear,220,2012-06-04 01:53:00
9:53 PM,75.9,68.0,76,29.93,10.0,Calm,Calm,-,N/A,,Clear,0,2012-06-04 02:53:00
10:53 PM,73.0,68.0,84,29.94,10.0,South,3.5,-,N/A,,Clear,190,2012-06-04 03:53:00
11:53 PM,73.0,66.0,79,29.95,10.0,Calm,Calm,-,N/A,,Clear,0,2012-06-04 04:53:00